Weather History for Bloomington, IL

Change the Weather History Date:

Tuesday, March 5, 2013

  Actual Average Record
Temperature  
Mean Temperature 30 °F -  
Max Temperature 34 °F 37 °F 63 °F (2009)
Min Temperature 26 °F 33 °F 12 °F (2008)
Degree Days  
Heating Degree Days 35    
Moisture  
Dew Point 30 °F    
Average Humidity 97    
Maximum Humidity 100    
Minimum Humidity 85    
Precipitation  
Precipitation 0.11 in - - ()
Sea Level Pressure  
Sea Level Pressure 29.88 in    
Wind  
Wind Speed 13 mph (NNW)    
Max Wind Speed 24 mph    
Max Gust Speed 33 mph    
Visibility 2 miles    
Events Fog , Rain , Snow    
Averages and records for this station are not official NWS values.
T = Trace of Precipitation, MM = Missing Value Source: NWS Daily Summary

Daily Weather History Graph

Daily Weather History Graph

Search for Another Location

Airport:

Trip Planner

Search our weather history database for the weather conditions in past years. The results will help you decide how hot, cold, wet, or windy it might be!

Date:

Astronomy

Mar. 05, 2013 Rise Set
Actual Time 6:22 AM CST 5:51 PM CST
Civil Twilight 5:55 AM CST 6:19 PM CST
Nautical Twilight 5:24 AM CST 6:50 PM CST
Astronomical Twilight 4:52 AM CST 7:22 PM CST
Moon 1:35 AM CST (3/5) 11:29 AM CST (3/5)
Length of Visible Light 12h 23m
Length of Day
11h 29m
Last Quarter, 40% of the Moon is Illuminated
Mar 5
Last Quarter
Mar 11
New
Mar 19
First Quarter
Mar 27
Full
Apr 2
Last Quarter

Hourly Weather History & Observations

Time (CST) Temp. Windchill Dew Point Humidity Pressure Visibility Wind Dir Wind Speed Gust Speed Precip Events Conditions
1:56 AM 34.0 °F 26.6 °F 30.0 °F 85% 29.91 in 10.0 mi East 9.2 mph - N/A   Mostly Cloudy
3:56 AM 32.0 °F 24.8 °F 31.1 °F 96% 29.89 in 4.0 mi ENE 8.1 mph - 0.00 in   Mostly Cloudy
4:14 AM 32.0 °F 24.8 °F 30.2 °F 93% 29.84 in 3.0 mi ENE 8.1 mph - 0.01 in Rain Light Freezing Rain
4:26 AM 32.0 °F 24.8 °F 30.2 °F 93% 29.84 in 3.0 mi ENE 8.1 mph - 0.01 in Snow Light Snow
4:56 AM 32.0 °F 23.6 °F 31.1 °F 96% 29.88 in 2.0 mi ENE 10.4 mph - 0.01 in Snow Light Snow
5:07 AM 32.0 °F 23.6 °F 30.2 °F 93% 29.84 in 2.0 mi ENE 10.4 mph - 0.00 in Snow Light Snow
5:17 AM 32.0 °F 23.6 °F 32.0 °F 100% 29.83 in 2.0 mi ENE 10.4 mph - 0.00 in Snow Light Snow
5:26 AM 32.0 °F 23.0 °F 32.0 °F 100% 29.83 in 3.0 mi ENE 11.5 mph - 0.00 in Snow Light Snow
5:56 AM 32.0 °F 23.0 °F 32.0 °F 100% 29.87 in 3.0 mi ENE 11.5 mph - 0.00 in   Overcast
6:56 AM 32.0 °F 25.6 °F 32.0 °F 100% 29.88 in 2.5 mi NE 6.9 mph - N/A   Mostly Cloudy
7:56 AM 32.0 °F 24.8 °F 32.0 °F 100% 29.87 in 1.0 mi NE 8.1 mph - 0.00 in Snow Light Snow
8:56 AM 32.0 °F 25.6 °F 32.0 °F 100% 29.87 in 0.8 mi North 6.9 mph - 0.01 in Snow Light Snow
9:56 AM 32.0 °F 26.4 °F 32.0 °F 100% 29.86 in 0.8 mi NNE 5.8 mph - 0.01 in Snow Light Snow
10:56 AM 32.0 °F 27.5 °F 32.0 °F 100% 29.85 in 0.5 mi NNW 4.6 mph - 0.02 in Fog , Snow Light Snow
11:14 AM 32.0 °F 27.5 °F 32.0 °F 100% 29.80 in 0.2 mi NNW 4.6 mph - 0.00 in Fog , Snow Light Snow
11:30 AM 32.0 °F 26.4 °F 32.0 °F 100% 29.80 in 0.2 mi NW 5.8 mph - 0.01 in Fog , Snow Light Snow
11:39 AM 32.0 °F 24.8 °F 32.0 °F 100% 29.80 in 0.2 mi NW 8.1 mph - 0.01 in Fog , Snow Light Snow
11:56 AM 32.0 °F 24.2 °F 32.0 °F 100% 29.85 in 0.5 mi WNW 9.2 mph - 0.03 in Fog , Snow Light Snow
12:56 PM 32.0 °F 21.2 °F 31.1 °F 96% 29.84 in 0.5 mi WNW 16.1 mph - 0.03 in Fog , Snow Light Snow
1:31 PM 30.2 °F 16.5 °F 30.2 °F 100% 29.79 in 0.2 mi WNW 24.2 mph 29.9 mph 0.00 in Fog , Snow Snow
1:56 PM 30.0 °F 16.9 °F 29.1 °F 96% 29.84 in 0.2 mi WNW 21.9 mph 28.8 mph 0.00 in Fog , Snow Snow
2:56 PM 30.0 °F 16.9 °F 28.0 °F 92% 29.86 in 0.2 mi WNW 21.9 mph 32.2 mph 0.00 in Fog , Snow Snow
3:42 PM 28.4 °F 15.1 °F 28.4 °F 100% 29.82 in 0.5 mi WNW 20.7 mph - 0.00 in Fog , Snow Light Snow
3:56 PM 29.1 °F 16.0 °F 28.0 °F 96% 29.88 in 0.5 mi WNW 20.7 mph - 0.00 in Fog , Snow Light Snow
4:56 PM 29.1 °F 16.4 °F 28.0 °F 96% 29.89 in 0.5 mi WNW 19.6 mph - 0.00 in Fog , Snow Light Snow
5:56 PM 28.0 °F 14.3 °F 27.1 °F 96% 29.90 in 0.5 mi WNW 21.9 mph 28.8 mph 0.00 in Fog , Snow Light Snow
5:57 PM 28.4 °F 14.4 °F 26.6 °F 93% 29.85 in 1.0 mi WNW 23.0 mph - 0.00 in Snow Light Snow
6:16 PM 28.4 °F 14.4 °F 28.4 °F 100% 29.85 in 1.5 mi WNW 23.0 mph 27.6 mph 0.00 in Snow Light Snow
6:23 PM 28.4 °F 14.4 °F 28.4 °F 100% 29.86 in 1.2 mi WNW 23.0 mph 27.6 mph 0.00 in Snow Light Snow
6:37 PM 28.4 °F 14.4 °F 28.4 °F 100% 29.86 in 1.5 mi WNW 23.0 mph - 0.00 in Snow Light Snow
6:56 PM 29.1 °F 15.7 °F 28.0 °F 96% 29.91 in 1.5 mi WNW 21.9 mph 32.2 mph 0.00 in Snow Light Snow
7:56 PM 30.0 °F 18.3 °F 29.1 °F 96% 29.94 in 1.5 mi NNW 17.3 mph 25.3 mph 0.00 in Snow Light Snow
8:56 PM 29.1 °F 15.7 °F 28.0 °F 96% 29.97 in 1.5 mi NNW 21.9 mph - 0.00 in Snow Light Snow
9:56 PM 27.1 °F 13.1 °F 26.1 °F 96% 30.01 in 2.0 mi NNW 21.9 mph 29.9 mph 0.00 in Snow Light Snow
10:21 PM 26.6 °F 12.4 °F 26.6 °F 100% 29.97 in 1.8 mi NNW 21.9 mph 33.4 mph 0.00 in Snow Light Snow
10:33 PM 26.6 °F 11.7 °F 26.6 °F 100% 29.97 in 2.0 mi NNW 24.2 mph 32.2 mph 0.00 in Snow Light Snow
10:56 PM 27.1 °F 13.1 °F 26.1 °F 96% 30.03 in 2.0 mi NNW 21.9 mph 31.1 mph 0.00 in Snow Light Snow
11:31 PM 26.6 °F 12.0 °F 26.6 °F 100% 29.99 in 3.0 mi NNW 23.0 mph - 0.00 in Snow Light Snow
11:56 PM 27.1 °F 13.4 °F 26.1 °F 96% 30.05 in 4.0 mi NNW 20.7 mph - 0.00 in Snow Light Snow